Regional Weather Roundup
Issued by NWS

Home | Current Version | Previous Version | Graphics & Text | Print | Product List | Glossary On
Versions: 1 2 3 4 5 6 7 8 9 10 11 12 13 14 15 16 17 18 19 20 21 22 23 24 25 26 27 28
000
ASUS45 KBOI 250310
RWRID
WEATHER ROUNDUP FOR IDAHO
NATIONAL WEATHER SERVICE BOISE ID
900 PM MDT FRI OCT 24 2014

NOTE: "FAIR" INDICATES FEW OR NO CLOUDS BELOW 12000 FEET
WITH NO SIGNIFICANT WEATHER AND/OR OBSTRUCTIONS TO VISIBILITY

IDZ012-014-250400-
SOUTHWEST IDAHO


CITY           SKY/WX    TMP DP  RH WIND       PRES   REMARKS
BOISE          MOCLDY    54  49  83 CALM      29.95F
CALDWELL       MOCLDY    54  45  71 W3        29.98S
MOUNTAIN HOME  MOCLDY    56  55  96 N3        29.96F
$$

IDZ016-017-250400-
SOUTHCENTRAL IDAHO


CITY           SKY/WX    TMP DP  RH WIND       PRES   REMARKS
BURLEY         CLEAR     57  32  38 CALM      30.02R
JEROME         CLEAR     61  27  27 NE16      30.01S
TWIN FALLS     CLEAR     49  33  54 E8        30.01F
$$

IDZ019>023-250400-
SOUTHEAST IDAHO


CITY           SKY/WX    TMP DP  RH WIND       PRES   REMARKS
IDAHO FALLS    CLEAR     55  32  41 SW5       30.10S
POCATELLO      CLEAR     63  26  24 S13       30.06S
REXBURG        CLEAR     57  29  34 S8        30.10S
$$

IDZ006-010-011-018-031-032-250400-
CENTRAL IDAHO MOUNTAINS


CITY           SKY/WX    TMP DP  RH WIND       PRES   REMARKS
MCCALL         MOCLDY    41  40  96 CALM      30.02S
HAILEY         CLEAR     50  32  50 NW7       30.12
STANLEY          N/A     38  31  76 CALM      30.13S
SALMON         CLEAR     43  39  87 SE3       30.08S
CHALLIS        CLEAR     43  37  79 NW6       30.08R
$$

IDZ002-004-006-007-026-250400-
NORTHERN IDAHO


CITY           SKY/WX    TMP DP  RH WIND       PRES   REMARKS
LEWISTON       CLOUDY    53  50  89 SE5       29.98S
LOWELL           N/A     50  49  96 CALM      30.03F
COEUR D`ALENE  CLOUDY    48  39  71 N10       30.00F
MULLAN PASS    LGT RAIN  36  36 100 SE9G18    30.05F FOG     WCI  29
$$



USA.gov is the U.S. government's official web portal to all federal, state and local government web resources and services.